User: anonymous   Login
Location: Newark
(48.7667°N, 7.9833°E)
Time: 03:59:15
(UTC+00:00)
Language:

PicSat - Orbit

View from above orbital plane
View from above orbital plane
View from above satellite
View from above satellite

Ground track
Ground track

The orbit data is extracted from the following two-line orbital elements,

1 43131U 18004W   19258.50181503  .00001196  00000-0  51863-4 0  9997
2 43131  97.4823 326.4328 0007947 307.7463  52.3053 15.24327294 93045
Epoch (UTC): 15 September 2019 12:02:36
Eccentricity: 0.0007947
inclination: 97.4823°
perigee height: 487 km
apogee height: 498 km
right ascension of ascending node: 326.4328°
argument of perigee: 307.7463°
revolutions per day: 15.24327294
mean anomaly at epoch: 52.3053°
orbit number at epoch: 9304

The dashed part of the orbit path shows where the satellite is in the earth's shadow,  

DLR